Home   Weather   Barquisimeto   Past weeks

Flag for Venezuela Past Weather in Barquisimeto, Venezuela — Yesterday and Last 2 Weeks

Now
70 °F

Passing clouds.


Feels Like: 70 °F
Forecast: 67 / 95 °F
Wind: 3 mph from Southeast

Location: Barquisimeto Airport

Current Time: Feb 24, 2017 at 7:20:19 am

Latest Report: Feb 24, 2017 at 6:00 am


Visibility: N/A

Pressure: 30.01 "Hg (28.09 "Hg at 569m altitude)

Humidity: 88%

Dew Point: 66 °F

Location of BarquisimetoLocation

Past Weather in Barquisimeto — Graph

°F

Barquisimeto Temperature Yesterday

Maximum temperature yesterday: 88 °F (at 12:00 pm)
Minimum temperature yesterday: 70 °F (at 8:00 am)
Average temperature yesterday: 81 °F

High & Low Weather Summary for the Past Weeks

 TemperatureHumidityPressure
High93 °F (Feb 18, 4:00 pm)94% (Feb 10, 7:00 am)30.09 "Hg (Feb 10, 7:00 am)
Low63 °F (Feb 18, 6:00 am)32% (Feb 22, 2:00 pm)29.86 "Hg (Feb 22, 3:00 pm)
Average79 °F66%30.01 "Hg
* Reported Feb 9 6:00 am — Feb 24 6:00 am, Barquisimeto, Weather by CustomWeather, © 2017

Note: Actual official high and low records may vary slightly from our data, if they occured in-between our weather recording intervals... More about our weather records

Advertising

Barquisimeto Weather History for the Previous 24 Hours

Scroll right to see more
 ConditionsComfort  
Time TempWeatherWind HumidityBarometerVisibility
6:00 am
Fri, Feb 24
70 °FPassing clouds.3 mph88%30.01 "HgN/A
11:00 pm
Thu, Feb 23
73 °FPassing clouds.7 mph89%30.01 "HgN/A
10:00 pm73 °FPassing clouds.7 mph83%29.98 "HgN/A
9:00 pm75 °FClear.7 mph74%29.92 "Hg10 mi
8:00 pm79 °FClear.7 mph61%29.92 "Hg10 mi
7:00 pm81 °FPassing clouds.10 mph62%29.89 "HgN/A
6:00 pm84 °FPassing clouds.8 mph51%29.89 "HgN/A
5:00 pm86 °FScattered clouds.9 mph46%29.89 "HgN/A
4:00 pm84 °FPartly sunny.9 mph55%29.92 "HgN/A
3:00 pm84 °FPartly sunny.12 mph55%29.92 "HgN/A
2:00 pm86 °FScattered clouds.15 mph52%29.95 "HgN/A
1:00 pm88 °FScattered clouds.13 mph35%29.95 "HgN/A
12:00 pm88 °FPassing clouds.2 mph35%29.98 "HgN/A
11:00 am86 °FPassing clouds.6 mph43%30.01 "HgN/A
10:00 am79 °FScattered clouds.2 mph58%30.01 "HgN/A
9:00 am73 °FPartly sunny.No wind74%30.01 "HgN/A
8:00 am70 °FPartly sunny.No wind83%30.01 "HgN/A
Weather by CustomWeather, © 2017

See weather overviewHow to use our weather pages